Dewpoint
70 70 70 70 70 70 70 70 70 70 70 71 71 71 71 72 72 71 71 72 73 73 73 73 73 72 72 73 74 74 74 74 74 74 74 74 73 73 74 73 73 72 72 71 69 68 68 68 68 68 67 66 66 66 66 67 66 66 66 65 64 64 63 62 61 61 63 65 64 63 63 64 65 65 64 64 65 67 69 67 67 66 66 66 66
70 70 71 70 70 70 70 70 70 71 70 70 70 70 70 71 72 72 72 72 73 73 73 73 73 72 72 73 73 74 74 74 74 74 74 74 73 73 74 73 73 72 72 71 70 69 68 68 68 68 68 66 66 65 65 67 67 65 65 66 64 65 64 63 62 61 60 62 63 65 64 65 63 64 64 64 65 68 68 67 67 66 65 65 66
70 70 70 71 70 70 70 70 71 71 70 70 70 70 70 70 71 73 72 72 73 73 73 72 72 72 72 73 73 73 74 73 74 74 74 74 73 73 73 73 73 72 72 71 70 70 69 68 68 68 68 67 66 65 65 66 67 66 64 65 64 64 65 64 62 61 61 62 63 63 64 64 63 62 64 64 65 67 66 66 66 67 67 66 66
70 70 70 70 70 70 70 70 70 70 70 70 70 70 70 70 70 71 72 73 73 73 73 73 73 72 72 72 73 73 73 73 73 74 74 74 74 73 73 73 73 73 72 72 71 70 69 68 68 68 68 68 67 66 65 65 66 66 65 65 65 64 65 65 63 62 62 61 62 64 64 64 64 63 65 65 64 67 66 66 65 66 67 68 67
70 70 70 70 70 70 70 70 70 70 70 70 70 70 70 70 70 70 71 72 73 73 73 73 73 73 72 72 72 73 73 73 73 73 74 74 74 74 74 74 74 73 73 73 73 71 70 69 68 68 68 68 68 67 66 65 65 66 66 65 65 65 66 66 65 64 62 62 62 63 65 64 65 64 65 65 65 66 66 65 64 65 66 67 68
70 70 70 70 70 70 70 70 70 70 70 70 70 70 70 70 70 70 70 70 72 73 73 73 73 73 73 72 72 72 73 73 73 73 74 74 74 74 74 74 74 74 73 73 73 72 70 69 69 69 68 68 67 67 67 65 65 65 66 65 65 65 65 66 66 65 64 62 62 62 62 64 64 64 65 65 64 65 65 66 65 65 65 65 66
70 70 70 70 70 70 70 70 70 70 70 70 70 70 70 70 70 70 70 70 70 71 73 73 72 73 73 73 72 72 72 73 73 73 73 74 74 74 74 74 73 73 73 73 73 73 71 70 69 69 68 68 68 67 67 66 66 65 65 65 66 65 65 65 65 65 65 64 63 63 62 64 65 63 64 65 65 64 64 64 65 66 65 64 64
70 70 70 70 70 70 70 70 70 70 70 70 70 70 70 70 70 70 70 70 69 70 71 72 72 72 72 73 72 72 72 72 73 73 73 73 74 74 74 73 73 73 73 73 73 73 72 71 70 69 69 68 68 68 67 67 67 66 65 66 66 66 65 65 65 65 64 64 64 63 64 63 63 64 65 64 64 64 64 63 63 64 65 65 64
70 70 70 70 71 71 71 71 71 71 71 70 70 70 70 70 70 70 70 70 70 70 70 71 72 72 72 72 72 72 72 72 72 73 73 73 73 73 73 73 73 73 73 73 73 73 72 72 71 70 70 69 67 67 67 66 67 66 66 66 66 66 65 65 65 65 64 64 64 64 63 64 64 64 64 64 63 62 63 64 63 63 64 65 65
71 71 70 70 71 71 71 71 71 71 71 70 70 70 70 70 70 70 70 70 70 70 70 70 71 72 72 71 71 72 73 73 70 65 68 73 73 73 73 73 73 73 72 72 72 72 72 72 72 70 67 66 66 65 65 65 65 67 67 67 66 66 65 65 65 64 64 64 64 63 63 63 63 63 63 64 64 63 63 64 63 63 62 63 64
71 71 71 71 71 71 71 71 71 71 71 71 71 70 70 70 70 70 70 71 71 70 70 70 70 71 72 71 71 71 72 72 66 64 64 66 71 73 73 73 73 73 72 72 71 72 72 72 72 71 68 67 67 64 64 64 64 65 66 66 66 67 66 65 65 65 64 64 64 64 63 63 63 63 63 63 65 64 63 63 63 63 63 62 62
72 72 72 72 72 72 71 72 72 71 71 71 71 70 70 70 70 70 70 70 71 71 70 70 70 71 71 71 71 71 71 67 64 64 63 63 66 72 72 72 73 72 72 72 72 71 71 72 72 72 71 70 69 68 65 63 63 63 64 65 65 65 65 66 65 65 65 64 64 64 64 63 63 63 63 63 63 64 64 63 63 63 63 63 62
72 72 72 72 72 72 72 72 71 71 71 71 71 71 70 70 69 69 69 69 70 71 70 70 70 70 71 71 71 72 72 66 63 63 63 63 63 67 72 72 72 72 72 72 72 72 71 71 71 72 72 68 69 70 69 68 63 62 63 64 64 63 64 64 64 66 65 65 64 64 64 64 64 64 64 63 64 63 64 63 63 63 63 62 62
72 73 73 73 73 73 72 72 71 71 71 71 71 71 70 70 69 69 69 69 69 70 70 70 70 70 70 71 71 71 72 67 62 61 62 62 62 64 72 72 72 72 72 72 72 72 72 71 71 71 72 72 71 70 70 69 69 67 65 65 66 66 63 62 63 63 66 65 64 64 64 65 64 64 65 65 64 63 63 63 64 63 63 62 63
70 72 73 73 73 73 72 72 71 71 71 71 71 71 70 70 70 69 69 69 68 69 69 70 70 70 70 70 70 71 71 65 61 60 60 60 61 62 71 72 72 72 72 72 73 73 72 72 72 71 71 72 72 70 70 70 70 69 68 67 66 67 67 67 66 65 66 66 65 64 64 64 65 65 65 66 65 64 63 63 64 64 64 64 64
69 71 72 72 73 73 73 72 72 71 71 71 71 70 71 70 70 69 69 69 68 69 69 70 70 70 70 70 70 70 71 64 61 60 59 59 61 67 70 71 72 72 72 72 73 73 73 73 72 72 72 72 69 65 67 70 70 69 69 68 68 67 67 65 64 65 66 66 66 65 65 64 63 66 66 65 66 66 65 65 64 64 64 63 63
68 70 71 72 72 73 73 72 72 72 71 71 70 70 70 70 70 70 69 68 68 68 68 69 70 70 71 71 70 70 70 65 60 59 58 59 60 68 70 71 72 72 72 72 72 73 73 73 73 73 72 72 68 64 63 65 70 70 69 69 69 68 68 68 64 62 62 62 61 62 62 62 61 60 60 61 64 65 65 64 63 64 63 62 62
69 69 70 71 72 72 73 73 72 72 72 71 71 70 70 70 70 70 69 68 68 68 68 68 69 70 70 71 71 70 70 67 59 58 57 57 61 69 70 71 71 72 72 72 72 72 72 71 73 73 73 72 66 63 62 65 70 70 70 69 69 68 68 68 68 67 62 61 61 61 61 62 62 61 60 60 60 63 65 63 63 63 63 62 61
68 69 69 70 71 72 73 73 72 72 72 72 71 71 71 70 70 71 70 69 68 68 68 68 68 69 70 71 69 70 71 68 57 58 57 57 62 69 71 71 71 71 72 72 72 72 72 71 69 69 71 70 64 62 61 63 70 70 70 70 69 69 69 69 68 67 67 67 66 65 66 65 65 64 65 61 61 67 65 64 64 63 62 62 62
68 69 70 70 71 71 72 73 73 72 72 72 72 72 72 71 71 71 70 70 69 68 68 68 68 68 69 70 71 71 71 71 63 56 56 56 58 69 71 71 71 71 71 71 72 72 72 72 70 62 62 63 62 60 60 59 69 71 71 70 70 69 70 69 69 68 68 67 67 67 67 67 67 66 66 65 64 65 65 65 64 63 63 62 62
67 69 70 71 71 71 72 73 72 72 72 72 72 72 72 72 71 71 71 70 70 69 69 68 68 69 69 70 70 71 72 72 66 55 55 55 56 61 71 71 71 71 71 71 72 72 72 72 72 65 60 60 59 59 58 57 61 70 71 71 70 70 68 70 69 66 68 68 67 67 67 67 67 67 66 66 66 65 65 64 65 64 63 63 62
67 68 71 72 71 71 72 73 73 73 73 72 72 72 73 72 72 72 71 71 71 70 70 69 69 69 70 71 71 71 72 69 71 56 55 54 55 56 68 72 71 72 72 72 72 72 72 72 72 68 61 59 58 58 57 57 57 66 70 64 64 63 68 69 70 69 69 68 68 67 67 67 67 67 67 66 66 66 66 65 65 65 64 63 63
69 68 70 72 72 72 72 72 73 73 73 73 72 72 73 73 73 73 73 72 72 71 71 71 70 70 71 72 73 73 73 72 66 63 55 54 54 54 59 66 65 72 72 72 72 73 73 73 72 67 62 58 57 56 57 57 57 61 59 60 61 61 64 68 69 70 69 69 68 67 67 67 67 66 66 66 66 66 66 66 66 65 65 64 64
71 68 69 71 73 73 73 73 73 73 73 73 73 73 73 74 74 74 73 73 73 72 72 72 72 71 71 72 73 73 74 74 66 61 60 53 54 53 54 58 62 70 72 73 73 73 73 73 71 63 58 55 54 55 56 56 61 58 56 57 59 61 67 68 68 69 69 69 68 68 68 68 67 67 67 67 67 67 67 66 66 67 66 66 67
73 70 69 70 72 73 73 74 74 73 74 73 73 73 74 74 74 74 74 74 73 73 73 73 72 72 72 71 72 73 74 75 74 64 58 54 53 53 54 55 57 59 69 72 73 69 53 49 52 56 58 57 56 55 54 54 54 54 55 56 58 63 66 68 69 69 69 69 69 69 69 69 68 68 68 68 68 67 67 67 66 67 68 68 67
74 72 70 71 72 73 74 74 74 74 74 74 74 74 74 75 74 75 74 74 74 74 73 73 73 72 72 72 72 73 74 74 68 65 63 58 56 53 53 54 55 56 58 61 57 56 55 55 55 58 61 62 64 65 66 66 59 57 56 57 62 63 65 66 68 69 69 69 69 69 69 70 70 69 68 68 68 68 67 66 67 67 67 66 65
75 73 72 73 74 74 73 74 75 75 76 76 75 75 75 75 75 74 75 75 74 74 74 73 73 73 73 73 72 73 71 63 63 64 64 63 62 60 57 58 56 57 60 63 61 64 65 65 65 61 60 60 60 59 61 63 64 63 64 63 63 64 65 66 67 68 69 69 69 70 70 71 70 67 67 66 67 68 68 66 66 67 66 65 65
76 73 73 74 75 74 74 77 76 76 76 76 76 75 76 76 75 75 75 75 75 74 74 74 73 73 73 73 73 70 61 58 58 58 60 64 64 63 62 63 61 61 62 64 64 65 66 63 63 66 67 67 68 68 68 67 66 65 66 66 66 65 64 62 62 66 67 68 69 70 70 71 69 66 66 66 67 67 67 67 66 65 65 64 64
76 73 73 74 75 75 75 76 75 70 64 57 53 51 51 55 69 70 64 63 75 75 75 75 74 74 74 74 73 64 60 57 56 50 54 51 63 65 64 64 64 61 53 50 63 64 64 64 64 65 65 66 66 67 67 68 68 68 68 68 67 67 67 67 67 67 67 67 67 68 68 69 69 66 65 66 66 66 67 67 66 65 64 64 63
72 72 72 73 75 75 75 74 71 67 63 60 57 55 53 47 49 57 59 56 51 57 67 73 71 65 60 56 61 66 61 56 48 44 43 43 43 45 45 45 48 51 49 49 59 60 61 61 62 62 63 63 64 64 64 64 64 64 65 62 65 66 66 66 67 67 66 66 67 67 67 68 68 67 66 65 66 66 66 64 66 65 64 63 63
71 71 71 72 73 75 74 72 69 67 64 61 59 59 58 55 47 46 50 51 48 45 46 49 52 56 59 54 53 51 50 46 44 43 43 43 42 42 41 41 42 43 47 57 58 58 58 58 58 59 59 59 59 60 60 60 61 61 61 62 62 63 62 63 64 64 65 65 66 66 66 67 67 67 67 65 65 66 66 65 65 65 64 63 62
70 70 71 71 72 73 72 70 68 65 63 61 60 59 58 57 57 50 45 48 47 46 45 46 46 48 49 52 53 53 48 44 44 44 43 43 42 41 41 41 43 45 47 52 58 57 56 56 56 56 57 57 57 58 59 59 60 60 60 60 60 60 60 60 60 62 62 62 63 64 65 66 66 66 66 66 64 65 66 66 65 64 64 64 63
71 71 71 72 73 73 70 68 65 63 62 60 60 60 59 58 57 57 56 48 46 45 45 45 46 46 47 47 49 50 49 45 43 43 43 43 42 41 41 41 41 44 52 57 58 56 55 55 55 55 55 57 57 58 59 59 60 60 60 59 59 59 59 59 59 60 59 60 60 60 61 63 64 64 64 65 65 65 65 65 65 65 64 63 62
70 69 69 70 72 70 68 65 63 62 61 60 60 59 59 59 58 58 58 58 58 54 50 47 45 45 45 45 46 45 44 43 43 42 43 43 42 43 45 45 39 40 50 58 56 55 54 55 56 56 56 57 58 59 59 60 60 60 59 59 59 59 60 60 60 59 59 59 59 59 60 60 61 63 64 65 66 65 65 64 65 64 64 63 62
68 70 71 70 69 69 67 64 62 61 61 60 60 59 59 59 59 58 57 58 59 59 59 59 53 50 53 49 44 43 43 43 43 43 42 42 42 42 45 58 59 57 56 56 57 55 56 56 56 57 57 57 57 58 59 59 59 59 59 59 59 59 59 59 59 59 59 59 59 60 60 60 61 62 63 64 64 65 65 65 65 64 64 63 62
67 66 66 66 67 67 66 64 62 61 60 60 60 60 61 60 60 59 58 60 60 60 60 61 60 52 47 44 43 43 43 43 42 42 42 42 42 45 58 58 57 56 56 56 56 57 56 57 57 57 57 57 58 59 59 59 59 59 59 59 58 58 59 59 58 59 58 59 59 59 59 61 61 61 63 63 64 64 64 64 64 63 63 63 63
65 65 65 65 66 65 65 64 63 62 61 60 61 62 63 63 62 61 61 61 61 61 60 60 60 61 59 57 48 43 42 42 42 42 42 41 40 52 58 57 57 56 57 56 56 56 56 56 57 57 57 57 58 58 59 59 59 58 57 58 58 58 58 59 58 58 59 59 59 60 60 61 61 62 62 62 62 63 64 64 64 63 62 61 59
65 65 65 65 65 65 64 64 63 63 63 63 63 63 63 62 62 62 62 62 61 59 58 58 60 60 60 59 61 57 51 44 46 49 49 49 54 57 57 57 57 56 56 56 57 56 57 56 56 56 57 56 57 57 57 57 57 57 57 57 57 58 55 57 58 58 58 59 59 59 59 60 61 62 61 61 62 62 62 62 62 63 61 59 59
63 61 61 62 63 65 63 64 64 63 63 63 63 62 62 62 62 62 61 60 59 58 59 57 58 59 59 58 59 59 58 57 56 57 57 56 56 56 56 56 56 56 56 56 57 57 57 56 56 56 56 56 56 56 56 57 57 57 57 57 57 57 57 57 57 57 57 57 58 58 58 58 59 61 62 62 62 62 62 62 61 60 60 59 60
62 62 62 61 62 62 63 64 63 63 63 62 62 62 63 63 62 61 60 60 59 58 58 57 58 58 56 56 57 58 59 57 57 57 57 56 56 55 55 55 56 56 56 55 55 56 56 55 55 55 56 55 56 55 55 56 56 56 56 56 56 56 56 56 56 56 56 56 56 57 57 57 58 59 59 58 58 60 60 61 59 56 56 55 55
62 62 64 61 61 61 63 62 61 61 61 62 61 62 63 63 63 64 62 62 62 61 60 59 58 57 53 49 46 48 57 58 57 57 57 56 56 56 56 55 55 56 56 56 56 56 56 56 55 55 55 55 55 56 55 55 55 56 56 56 55 55 55 55 56 56 56 55 55 56 56 57 57 57 56 57 54 56 56 56 56 56 55 55 55
60 60 60 60 60 60 60 60 59 59 59 60 59 60 61 61 61 62 63 63 63 62 61 60 59 58 53 50 48 48 58 59 57 57 57 57 56 55 56 55 56 55 56 56 56 57 56 56 56 55 55 55 55 55 55 55 55 55 55 55 55 55 55 55 55 55 55 56 55 55 55 55 56 56 56 52 56 56 56 56 56 55 55 55 55
60 59 59 59 59 58 58 58 57 57 56 56 56 58 58 57 57 57 57 59 58 58 57 57 56 56 55 51 52 53 58 59 61 57 57 56 56 56 56 56 56 56 56 56 55 57 57 57 56 55 56 55 55 55 54 54 54 55 55 55 55 55 55 55 55 56 56 56 56 55 55 55 55 54 54 55 55 55 55 54 54 55 54 55 54
58 58 58 57 57 57 57 56 56 56 56 57 56 55 55 54 54 54 54 54 54 53 53 53 54 54 53 52 52 54 56 56 58 59 60 59 58 57 56 56 56 56 56 56 56 56 56 56 56 55 55 54 55 54 54 54 54 54 54 55 56 55 55 55 55 56 56 56 56 55 55 55 55 56 55 55 55 54 53 52 52 52 52 52 52
57 56 56 55 55 55 54 54 54 54 54 53 52 52 53 52 52 52 52 51 52 51 51 51 52 51 52 52 52 53 53 54 55 56 57 58 59 60 60 59 57 56 56 57 56 56 56 56 56 56 56 55 54 54 54 55 54 55 54 55 55 55 55 55 56 56 56 56 55 55 55 56 56 56 56 56 56 55 55 55 55 54 54 53 52
55 56 55 54 54 54 53 52 53 52 52 51 50 50 50 50 50 51 50 50 50 49 49 49 49 50 50 50 50 51 51 51 52 52 53 54 54 55 57 59 60 59 58 57 57 57 56 56 56 55 56 56 55 54 54 54 54 53 53 53 54 54 54 54 55 55 55 55 55 55 55 55 55 56 57 56 56 56 55 55 55 55 54 53 53
53 53 54 54 54 53 53 52 52 51 51 50 50 50 49 49 48 49 50 49 48 48 47 47 47 47 48 48 48 48 49 49 49 50 50 51 52 52 54 56 56 59 60 60 58 58 57 56 56 56 56 55 55 55 54 54 53 53 52 52 52 53 53 53 54 54 54 54 54 54 54 54 54 54 55 55 54 54 54 55 55 55 54 54 53
52 51 51 52 51 51 50 50 51 52 50 50 50 49 49 48 48 47 47 47 46 46 45 45 45 46 47 47 47 47 47 47 47 48 48 48 49 50 51 53 53 54 55 56 57 57 57 55 53 54 55 56 56 56 54 53 52 53 52 52 51 50 51 51 53 54 53 54 53 53 53 53 53 53 54 54 53 53 52 53 53 54 54 54 53
51 52 53 52 51 49 49 49 49 48 48 48 48 47 47 46 46 46 46 45 45 45 44 44 44 45 45 46 46 46 46 46 45 46 46 46 47 47 50 51 51 51 51 50 50 50 50 50 49 49 49 49 51 53 54 54 54 54 53 52 50 47 45 47 50 53 51 53 53 53 53 52 52 52 52 52 52 52 52 52 52 52 52 53 54
48 48 48 47 47 47 47 47 46 46 46 46 45 45 45 45 44 45 44 44 43 43 43 44 44 44 44 45 45 44 44 44 44 44 45 45 45 46 46 47 48 48 48 47 47 47 47 47 47 47 46 46 45 46 48 50 49 48 47 45 41 40 40 42 47 48 52 53 53 53 53 53 54 54 53 52 52 51 51 51 50 51 51 51 51
49 47 47 46 45 45 44 43 42 42 42 42 41 40 41 40 40 41 41 40 40 40 40 40 41 42 43 44 45 44 44 43 43 43 44 44 44 45 45 45 45 46 46 45 44 44 44 44 44 44 44 44 43 42 43 46 48 45 41 38 37 38 37 37 43 40 41 46 52 52 52 53 54 53 53 52 51 50 50 51 49 49 49 49 49